Terminal Aerodrome Forecast
Issued by NWS

Home | Current Version | Previous Version | Graphics & Text | Print | Product List | Glossary On
Versions: 1 2 3 4 5 6 7 8 9 10 11 12 13 14 15 16 17 18
000
FTUS43 KMPX 181300 AAA
TAFRWF
TAF AMD
KRWF 181348Z 1814/1912 10006KT 3SM BR BKN003
     FM181400 15007KT 6SM BR BKN008
     FM181600 16014KT P6SM SCT045=

USA.gov is the U.S. government's official web portal to all federal, state and local government web resources and services.